Regional Weather Roundup
Issued by NWS Northern Indiana

Home | Current Version | Previous Version | Text Only | Print | Product List | Glossary On
Versions: 1 2 3 4 5 6 7 8 9 10 11 12 13 14 15 16 17 18 19 20 21 22 23 24 25 26 27 28 29 30 31 32 33 34 35 36 37 38 39 40 41 42 43 44 45 46 47 48 49 50
000
ASUS43 KIWX 280710
RWRIWX

KIWX WEATHER ROUNDUP
NATIONAL WEATHER SERVICE NORTHERN INDIANA
300 AM EDT TUE MAR 28 2017

NOTE: "FAIR" INDICATES FEW OR NO CLOUDS BELOW 12,000 FEET WITH NO
SIGNIFICANT WEATHER AND/OR OBSTRUCTIONS TO VISIBILITY.

* THESE STATIONS ARE NOT UNDER NWS QUALITY CONTROL. THEY ALSO MAY NOT
  REPORT WEATHER SUCH AS PRECIPITATION OR FOG.

INZ001>027-280800-
NORTHERN INDIANA

CITY           SKY/WX    TMP DP  RH WIND       PRES   REMARKS
GARY*          CLEAR     40  37  90 N9        29.98F
VALPARAISO     PTCLDY    39  37  92 N9G17     29.96R
MICHIGAN CITY* PTCLDY    36  36 100 N5        29.98S
LAPORTE*       CLOUDY    38  37  94 N13       29.96R
KNOX*          CLOUDY    41  28  60 N13       29.93S
SOUTH BEND     CLOUDY    39  37  92 N10       29.94S
GOSHEN         CLOUDY    48  43  82 N12       29.90S
MONTICELLO*    CLOUDY    47  45  92 N10       29.91R
LOGANSPORT*    CLOUDY    48  46  93 N8        29.90R FOG
ROCHESTER*     MOCLDY    50  48  93 N5        29.90S
WARSAW*        CLOUDY    46  45  93 N9        29.89F
ANGOLA*        CLOUDY    48  48 100 N6        29.89S
FORT WAYNE     LGT RAIN  53  49  86 NE7       29.87S
HUNTINGTON*    DRIZZLE   51  50  97 N5        29.87F
PERU/GRISSOM   CLOUDY    51  51 100 N10       29.87S
MARION*        CLOUDY    52  51  95 N8        29.88S

$$
INZ028>050-280800-
CENTRAL INDIANA

CITY           SKY/WX    TMP DP  RH WIND       PRES   REMARKS
LAFAYETTE      CLOUDY    48  47  96 N8        29.90R
KOKOMO*        CLOUDY    53  51  93 N10       29.88S
MUNCIE*        LGT RAIN  55  52  89 NE10      29.85S FOG
INDIANAPOLIS   CLOUDY    55  53  93 N12       29.84F

$$
MIZ043>046-050>051-056>058-064>065-071>073-077>080-280800-
SOUTHWEST LOWER MICHIGAN

CITY           SKY/WX    TMP DP  RH WIND       PRES   REMARKS
BATTLE CREEK   CLOUDY    46  43  89 N6        29.93S
BENTON HARBOR  CLOUDY    39  36  89 N5        29.96S
COLDWATER*     CLOUDY    47  45  92 N6        29.91S
HILLSDALE*     CLOUDY    46  45  93 N8        29.89S
HOLLAND        CLOUDY    41  37  86 N5        29.97S
GRAND RAPIDS   CLOUDY    44  42  93 N7        29.95S
KALAMAZOO      CLOUDY    44  39  82 N8        29.93F
STURGIS*       CLOUDY    46  43  92 N7        29.90F
THREE RIVERS*  MOCLDY    44  41  89 N5        29.92F

$$
OHZ001>008-015>018-024>025-280800-
NORTHWEST OHIO

CITY           SKY/WX    TMP DP  RH WIND       PRES   REMARKS
WAUSEON*       CLOUDY    52  48  87 N12       29.87S
DEFIANCE       CLOUDY    51  47  86 N10       29.87S
FINDLAY        CLOUDY    55  48  77 E5        29.85R
TOLEDO EXPRESS CLOUDY    51  49  92 N10       29.87S
TOLEDO METCALF CLOUDY    50  48  93 NE8       29.87F
LIMA           LGT RAIN  53  52  96 N5        29.86S FOG

$$
AND FOR LAKE MICHIGAN COASTAL AND OPEN LAKE BUOY OBSERVATIONS

STATION/POSITION TEMP    WIND        PRES    VSBY  WAVE
                 AIR SEA DIR/SP/G                  HT/PER
                 (F)     (DEG/KT/KT) (MB)    (MI)  (FT/S)
CALUMET HARBOR    38     330/ 10/ 15 1014.9F
MICHIGAN CITY     38     330/ 11/ 12   N/A
BURNS HARBOR      38     340/ 11/ 14 1015.6R
SAINT JOSEPH      39      10/  8/ 10 1015.6

$$
&&




USA.gov is the U.S. government's official web portal to all federal, state and local government web resources and services.